Theta_e
312 311 311 310 310 309 308 308 308 307 307 306 306 306 306 305 305 305 305 305 305 305 306 306 307 308 309 310 310 310 311 311 311 311 311 310 310 310 309 308 308 307 306 305 304 304 303 303 303 303 302 302 301 300 300 300 299 299 298 298 298 297 297 297 296 296 296 296 296
311 311 310 311 310 309 308 307 307 307 307 306 306 306 306 305 305 305 305 305 305 305 306 307 307 308 308 310 310 310 309 309 309 309 308 308 308 308 308 307 306 306 305 305 304 304 303 303 303 302 302 302 301 300 299 299 299 298 297 297 297 297 297 297 296 296 296 295 296
310 310 310 309 308 307 307 306 306 306 305 306 306 306 306 305 305 305 305 305 305 306 306 307 307 308 309 309 309 309 308 307 307 307 307 307 307 307 306 306 306 306 305 304 304 304 303 303 303 302 302 301 301 300 299 299 299 298 297 297 298 298 297 297 296 296 296 296 296
310 310 309 308 307 307 306 306 306 306 305 306 306 306 306 305 305 305 305 305 306 306 307 307 308 308 309 308 308 307 307 307 307 306 306 306 305 305 305 305 305 304 304 304 304 304 303 303 303 302 302 300 300 300 300 299 299 298 298 297 298 298 297 298 297 297 297 296 296
310 310 309 308 308 307 307 306 306 306 306 306 306 306 306 306 305 305 305 305 306 306 307 307 308 308 308 307 307 307 307 307 307 306 305 305 305 305 305 305 304 304 304 304 304 304 303 303 302 302 301 300 300 300 299 299 298 298 298 299 299 299 299 298 298 297 297 296 295
310 310 309 309 307 307 307 307 306 306 306 306 306 305 305 305 305 305 305 305 306 307 307 308 309 309 308 307 306 306 305 305 306 305 305 304 305 304 304 304 304 304 304 304 303 303 302 302 301 301 300 300 299 299 299 299 298 298 298 299 299 299 299 298 297 297 296 295 295
311 310 310 309 307 307 307 307 307 307 307 307 306 305 305 305 305 305 305 306 307 307 308 309 308 307 307 306 305 305 305 305 305 305 304 304 304 304 304 304 304 303 303 303 303 302 302 301 301 301 301 300 299 299 299 299 299 298 298 298 299 298 298 297 296 296 295 295 295
312 311 310 309 307 307 307 307 307 307 307 307 306 306 306 306 306 306 306 306 307 307 307 308 307 306 306 305 305 304 304 304 304 304 304 304 304 304 304 303 303 303 303 303 302 302 301 301 301 300 300 299 299 299 299 299 299 298 298 298 298 297 297 296 295 295 295 295 294
312 311 310 309 308 307 307 307 307 307 307 307 306 306 306 306 306 306 306 306 307 307 307 307 306 306 305 305 304 304 304 304 304 304 304 304 303 303 303 303 302 302 302 302 302 301 301 301 300 300 299 299 299 299 299 299 298 298 298 297 296 296 295 295 295 295 295 294 294
310 310 310 309 309 308 308 307 307 307 307 306 306 306 307 307 306 306 306 307 307 307 307 306 306 305 305 304 304 304 304 304 304 303 303 304 303 303 302 302 302 302 302 301 301 301 300 300 299 299 299 299 299 299 299 299 298 297 296 295 295 295 295 295 295 295 295 294 294
309 309 309 309 309 309 308 308 307 307 307 306 306 306 306 307 306 307 307 307 307 307 306 306 306 305 305 304 304 304 304 304 304 303 303 303 303 303 302 302 302 301 301 301 301 300 300 299 299 299 299 299 299 299 299 298 297 296 295 294 294 294 294 295 295 295 294 294 294
309 309 309 309 309 308 308 308 307 307 306 306 306 306 306 306 306 307 307 307 307 306 306 306 306 305 305 304 304 304 304 304 304 304 303 303 303 303 302 302 301 301 300 300 300 300 300 299 299 299 299 299 299 298 298 297 295 295 294 294 294 294 294 294 294 294 294 294 293
309 308 309 309 309 308 308 307 307 306 306 306 306 306 306 306 307 307 307 307 306 306 306 306 306 305 305 304 304 304 304 304 304 304 303 303 303 302 302 301 301 300 300 300 300 300 299 299 299 299 298 298 298 297 296 295 294 294 294 294 293 293 293 293 293 294 294 294 293
309 308 308 308 308 308 307 306 306 306 306 306 306 306 306 307 307 307 307 306 305 305 305 305 305 305 304 304 304 304 303 303 303 303 302 302 302 301 301 300 300 300 300 300 300 300 300 299 299 298 298 297 297 296 295 294 294 294 293 293 293 293 292 292 293 293 293 293 293
308 308 307 308 307 307 307 306 306 306 305 305 305 306 306 306 307 306 305 305 304 304 304 303 303 304 304 303 303 302 302 302 302 302 302 301 301 301 300 300 300 300 300 300 300 300 300 299 299 298 297 296 296 295 294 294 293 293 293 293 292 292 292 292 292 293 293 293 292
307 307 307 307 307 306 306 306 306 306 305 305 305 306 306 305 305 305 304 303 303 303 303 302 302 302 302 303 302 302 302 302 301 301 300 300 300 300 300 299 299 299 300 300 300 300 300 300 299 298 297 295 295 294 294 293 293 293 293 292 292 292 292 292 293 293 293 293 293
307 306 306 306 306 306 306 306 306 305 305 305 305 305 305 305 305 304 304 303 302 302 302 302 302 302 302 302 302 302 301 301 301 300 300 300 300 300 299 299 299 300 299 300 299 299 299 299 298 297 296 294 294 294 294 294 293 293 292 292 292 292 292 293 293 293 293 293 293
306 306 306 305 305 305 305 305 305 305 305 305 305 305 305 304 304 304 303 303 302 302 301 301 301 302 301 301 302 302 302 301 301 300 300 300 300 300 299 299 299 299 299 299 299 299 298 297 296 295 294 294 293 293 293 293 293 293 292 292 292 292 292 293 293 293 293 293 294
306 306 305 305 305 305 305 305 305 305 305 305 305 305 304 304 303 303 303 303 302 302 301 301 301 301 301 301 301 302 302 301 301 300 300 300 300 300 299 299 299 298 299 298 298 297 296 295 295 294 294 293 293 293 293 293 293 292 292 292 292 292 292 292 293 293 293 293 294
306 305 305 305 305 305 305 305 304 304 304 304 304 304 304 304 303 303 302 302 302 302 301 301 301 301 301 301 301 301 302 302 301 301 301 300 300 299 299 298 298 298 298 297 296 295 295 294 294 294 294 293 293 293 293 293 292 292 292 292 293 293 293 293 293 293 294 294 294
305 305 305 305 304 304 304 304 304 304 304 304 304 303 303 303 303 302 302 302 302 302 301 301 301 301 301 301 301 301 302 302 301 301 301 300 300 299 298 298 297 297 296 295 295 294 294 294 294 294 293 293 293 293 293 292 292 292 293 293 293 293 294 294 294 294 294 294 294
305 305 305 304 304 304 304 304 304 304 303 303 303 303 302 302 302 302 302 302 302 301 301 301 301 301 301 301 301 301 301 301 301 301 300 300 299 299 298 297 296 295 294 294 294 294 294 294 294 293 293 293 293 293 293 293 293 293 293 293 293 294 294 294 294 294 294 295 295
305 305 305 304 304 304 304 304 303 303 302 302 302 302 302 302 302 302 302 302 302 301 301 301 301 301 301 302 302 302 301 301 300 300 300 299 298 297 296 296 295 294 293 293 293 294 294 294 294 294 293 293 293 294 294 294 294 294 294 294 294 294 294 295 295 295 295 295 295
305 304 305 304 304 304 304 303 303 302 302 302 302 302 302 302 302 302 302 302 302 301 301 301 301 302 302 302 302 301 301 300 299 299 298 297 296 295 295 294 294 294 294 295 296 296 296 296 294 294 294 294 294 294 294 295 295 294 294 294 294 294 294 295 295 295 295 295 295
305 305 304 304 304 304 303 303 302 302 302 302 302 302 302 302 302 302 302 301 301 301 301 302 302 302 302 302 302 301 300 299 298 297 296 296 295 294 294 294 294 294 295 297 300 301 300 299 297 296 294 294 295 295 295 295 295 294 294 295 295 295 295 295 295 295 295 295 295
305 304 304 304 304 303 303 303 302 302 302 302 302 302 302 302 302 301 301 301 301 301 301 302 302 302 302 302 301 300 299 298 297 296 295 295 294 294 294 294 294 294 295 300 301 302 302 301 301 299 297 295 295 295 295 295 295 295 295 295 295 295 294 294 294 294 294 295 294
304 304 304 304 303 303 303 303 303 302 302 302 302 302 301 301 301 301 301 301 301 301 302 302 302 303 303 301 300 299 298 297 296 295 295 294 294 293 293 293 294 295 297 301 302 303 302 302 302 302 300 297 296 295 295 295 295 295 295 294 294 294 294 294 294 294 294 294 294
304 304 303 303 303 303 303 303 303 302 302 302 302 302 302 302 302 301 301 301 301 301 302 302 302 302 302 301 300 298 297 295 294 294 294 294 293 293 293 293 293 296 299 303 303 303 303 303 303 303 302 300 297 295 295 295 295 294 294 294 293 294 294 293 293 293 293 293 293
304 303 303 303 303 303 303 303 302 302 302 302 302 302 302 302 301 301 301 301 301 301 301 302 302 302 301 300 298 296 295 294 294 293 293 293 293 293 293 293 294 297 301 304 303 303 303 304 304 304 303 302 299 297 296 295 295 295 294 294 293 293 293 292 292 291 291 292 292
304 303 303 303 302 302 303 302 302 303 302 302 302 302 302 302 301 301 301 301 301 301 302 302 302 301 300 298 296 295 294 294 293 293 293 292 292 293 293 295 295 297 301 304 303 303 304 304 304 304 304 303 300 298 296 296 295 295 295 294 293 293 293 292 292 292 291 291 291
303 303 303 302 302 302 303 302 302 302 303 302 302 302 302 301 301 301 301 301 302 302 303 302 301 299 298 296 295 294 293 293 293 292 292 292 294 294 293 294 295 297 301 304 304 304 304 304 304 304 304 304 301 298 295 295 295 294 294 294 294 293 293 292 292 291 291 290 290
303 302 302 301 302 302 302 302 302 302 302 302 302 302 301 301 301 301 301 302 302 302 301 300 299 297 296 295 294 294 293 293 293 292 292 292 293 293 293 294 295 298 301 304 304 304 304 304 304 304 304 304 302 299 295 295 295 294 294 294 294 294 293 292 291 291 291 291 290
301 301 301 301 301 301 301 301 301 301 301 301 301 301 301 301 301 301 301 301 301 300 299 298 297 296 295 294 294 294 294 293 294 295 295 294 293 293 294 294 295 299 303 304 305 305 305 305 305 305 305 305 303 299 296 295 295 295 295 294 294 294 293 293 292 292 291 291 291
301 301 301 301 300 300 300 300 301 300 300 300 300 300 300 300 300 300 300 300 299 298 297 297 296 295 294 294 294 294 294 295 294 294 294 294 294 294 294 294 294 299 304 305 305 305 305 305 305 305 305 305 301 299 297 296 295 295 294 295 294 294 293 292 292 292 291 291 291
301 301 301 300 300 300 300 300 300 300 299 299 300 299 299 299 299 299 299 300 299 297 296 295 295 294 294 294 294 294 294 295 293 293 293 293 293 294 295 294 295 299 304 305 306 306 306 306 306 306 305 304 300 298 296 295 295 295 294 295 294 294 293 293 292 292 292 292 291
301 301 301 300 300 300 300 300 299 299 299 299 299 299 299 299 298 298 299 301 299 296 295 294 294 294 293 293 293 294 294 293 293 293 293 293 293 293 294 294 295 299 303 305 306 306 306 306 306 306 305 303 299 297 296 296 295 294 294 294 294 294 293 293 293 292 292 291 292
301 301 301 301 300 300 300 300 300 299 299 299 299 299 298 298 298 298 299 299 296 295 294 293 293 293 293 292 292 293 293 292 292 293 293 295 294 293 294 294 295 298 302 305 306 307 307 307 307 307 305 301 298 296 296 295 294 294 294 294 294 293 293 293 293 292 292 292 292
302 301 301 300 300 300 300 300 300 299 299 299 299 299 298 298 298 298 298 299 295 294 293 293 292 292 292 292 292 292 292 292 293 293 293 293 293 293 294 294 295 298 302 306 307 307 308 308 308 308 305 300 297 296 296 295 294 293 293 293 293 293 293 293 292 292 292 293 296
302 301 301 301 300 300 300 300 300 299 299 299 299 298 298 297 297 297 298 298 295 293 293 292 292 292 293 293 293 292 292 293 294 294 293 292 293 295 296 294 295 298 302 306 307 307 307 307 308 309 307 302 298 296 295 294 293 293 293 292 293 293 293 293 292 292 292 294 298
302 302 301 301 301 301 300 300 300 300 300 299 299 298 298 297 297 298 297 296 294 293 292 292 292 293 294 296 293 292 292 292 293 293 294 293 295 298 299 295 295 297 301 305 306 307 306 307 309 309 308 302 298 296 295 293 293 292 292 292 292 292 292 292 292 292 292 293 297
302 302 302 301 301 301 300 300 300 300 300 299 298 298 298 298 297 296 295 294 293 293 292 292 292 293 294 296 293 292 292 292 293 293 294 296 296 298 299 295 294 296 299 303 306 306 306 307 309 309 308 303 298 295 294 293 292 292 292 292 292 292 292 292 292 292 292 292 293
Wind_Speed
5 4 4 4 4 4 4 4 4 4 4 4 4 4 4 4 4 4 4 3 4 4 4 4 3 3 3 4 5 6 7 6 6 8 9 10 10 10 10 9 9 9 9 9 9 8 8 8 7 6 5 6 6 6 6 5 5 5 4 4 3 3 3 4 4 5 5 5 4
5 5 5 5 5 4 4 4 4 4 4 3 3 4 4 4 4 4 4 4 4 4 4 4 4 4 4 5 6 7 7 8 8 9 10 11 11 10 10 9 9 9 9 8 8 7 7 8 8 7 6 5 6 6 5 5 5 4 4 4 3 3 3 4 5 5 5 5 4
4 4 5 5 4 4 4 4 4 4 4 4 4 4 4 4 4 4 4 4 4 4 4 4 4 5 5 6 7 7 7 8 8 8 9 9 10 10 9 8 8 8 7 7 7 7 8 8 8 7 6 5 6 6 5 5 4 4 4 4 3 3 4 4 4 4 4 3 4
4 4 4 5 5 5 5 4 5 5 5 4 4 4 4 4 4 4 4 4 4 4 4 4 4 5 6 7 8 8 8 8 9 9 9 9 9 9 9 9 8 7 7 7 8 9 9 9 7 6 6 6 7 6 5 4 4 3 3 3 4 4 4 4 3 3 3 3 3
4 4 4 4 5 5 5 5 5 5 5 4 4 4 4 4 4 4 4 5 4 4 4 4 4 5 6 8 9 9 9 9 9 9 8 8 9 9 9 9 9 8 8 8 9 10 10 9 7 6 6 6 5 5 4 4 4 4 3 3 3 3 3 3 2 2 2 2 2
3 3 4 5 5 5 5 5 6 5 5 4 5 5 4 4 4 4 5 5 5 5 5 6 6 6 7 9 9 9 9 8 8 8 8 8 8 9 9 10 9 8 8 8 9 10 10 9 7 6 5 5 5 5 5 5 5 4 4 3 3 2 2 2 2 2 3 3 3
4 4 5 5 5 5 5 5 5 5 5 5 5 6 5 5 5 6 6 5 5 5 5 5 6 7 8 9 9 9 8 8 8 8 8 8 8 9 9 9 9 8 8 8 9 9 8 8 7 6 6 6 5 5 5 5 5 4 4 3 3 2 2 2 3 3 4 5 5
4 5 6 6 6 6 6 5 5 4 4 4 5 6 6 6 6 6 6 6 5 5 5 5 6 7 8 8 9 9 9 9 8 8 8 8 9 9 9 9 9 8 8 8 8 8 8 7 6 6 6 5 4 5 5 5 5 5 4 4 3 3 3 3 3 3 4 5 5
4 6 6 6 6 6 5 5 5 4 4 5 6 6 7 7 7 7 6 5 5 5 5 5 7 8 8 9 9 9 9 9 9 8 8 8 9 9 9 8 8 8 7 7 8 8 8 6 6 5 5 5 5 5 5 5 5 5 4 4 3 3 3 3 2 2 2 3 4
5 6 6 6 6 6 6 5 5 5 5 6 6 7 7 7 7 6 5 5 5 5 5 6 7 8 8 9 8 8 8 8 8 8 8 8 8 9 8 8 8 8 7 6 6 7 7 6 6 6 5 5 5 6 5 5 6 5 5 3 3 3 2 1 1 1 2 3 3
6 6 6 5 5 6 6 5 5 5 6 6 6 6 6 7 6 6 5 5 6 6 7 7 8 8 8 8 8 8 8 8 8 8 8 8 8 8 8 8 8 8 7 6 6 6 6 6 7 7 7 5 5 5 6 6 6 6 5 3 3 3 2 1 1 1 1 2 3
6 6 6 5 5 5 5 5 5 5 6 6 6 6 5 5 6 6 6 6 7 7 7 8 8 8 8 7 8 8 8 8 8 8 8 8 8 8 8 8 8 8 7 7 6 6 6 7 7 8 7 6 5 5 6 7 6 5 5 4 4 3 3 2 2 1 1 1 2
6 6 5 5 5 5 5 5 5 5 5 6 5 5 5 5 6 6 7 7 7 7 7 7 8 8 7 7 7 8 8 8 8 8 8 8 8 7 7 7 8 8 7 7 6 6 6 7 8 8 7 6 5 5 6 6 5 5 5 5 4 4 4 3 3 2 2 1 2
6 6 5 5 5 5 5 5 4 5 5 6 5 5 5 5 6 6 7 7 7 7 7 7 7 7 7 7 8 8 8 8 8 9 8 8 7 7 7 7 7 7 7 7 7 7 7 7 7 7 7 7 7 6 6 5 4 4 5 5 5 5 4 4 4 3 2 2 2
6 6 5 5 5 5 5 5 4 4 5 5 5 5 5 5 6 7 7 8 8 7 7 7 7 7 7 8 8 8 9 8 9 9 9 8 7 7 7 7 7 7 7 7 7 7 7 7 7 7 7 7 7 6 5 4 4 4 5 5 5 5 5 5 4 4 3 3 3
6 6 5 5 5 5 5 5 4 4 5 5 5 5 5 5 6 7 8 8 7 7 7 8 7 7 7 8 8 9 9 9 9 9 8 8 7 7 7 8 8 8 7 7 7 6 6 6 6 7 7 6 6 5 4 4 4 4 5 5 5 5 5 5 5 4 4 4 3
6 6 5 5 5 5 5 5 4 4 5 5 5 5 6 6 6 7 8 8 7 7 8 8 7 7 7 8 8 8 8 8 8 8 8 8 7 7 7 8 7 7 7 7 7 6 6 6 6 6 6 5 4 4 4 4 4 4 4 5 5 5 5 5 5 5 5 4 4
6 6 6 6 6 6 6 6 5 5 6 6 6 6 6 6 7 7 8 8 8 8 9 8 7 7 7 7 7 6 7 7 7 7 8 8 8 8 7 7 7 7 6 6 7 7 7 6 5 4 3 3 3 3 3 3 3 3 4 3 4 4 4 5 5 5 5 5 5
6 6 6 6 7 7 7 7 7 6 6 6 6 6 7 7 8 8 8 8 8 9 9 9 8 7 7 7 7 6 6 7 7 8 8 8 8 7 7 7 7 6 7 7 7 6 6 5 4 3 3 3 2 2 2 3 3 3 3 3 3 3 3 3 3 3 3 3 3
7 7 7 7 7 7 7 7 7 7 7 6 7 7 7 8 8 8 8 8 8 8 9 9 8 8 7 7 7 6 6 6 7 8 8 8 8 7 7 7 7 7 7 6 6 5 5 4 4 4 3 3 3 3 3 3 3 3 3 3 3 3 3 2 2 2 2 1 1
8 8 8 7 7 7 7 7 7 7 7 7 7 8 8 8 8 8 8 8 8 8 8 8 8 8 8 7 7 6 6 5 6 7 8 8 7 7 7 6 6 6 5 5 4 4 4 4 4 4 4 3 3 3 3 3 3 3 3 3 3 3 3 3 3 3 3 3 3
9 9 9 8 8 7 7 8 7 7 7 7 8 8 8 8 8 8 8 8 8 8 8 8 8 8 8 7 7 7 6 5 6 7 7 7 7 6 6 5 5 4 4 4 4 4 4 4 4 4 4 4 4 4 3 3 3 3 3 2 2 2 2 2 2 2 2 3 3
9 9 9 9 9 9 8 8 8 8 8 7 8 8 8 8 8 8 8 7 7 7 7 7 7 7 7 7 7 7 7 6 7 7 7 6 6 6 5 4 4 4 4 4 4 4 4 4 4 4 4 4 4 4 3 3 3 3 3 3 3 2 2 2 2 2 2 2 2
10 9 9 8 9 9 9 8 8 8 8 8 8 8 8 8 8 8 8 7 7 7 7 6 6 6 7 7 7 7 8 8 8 7 6 6 5 5 4 4 4 4 4 3 4 4 4 3 3 3 4 3 3 3 3 3 3 3 3 3 3 3 2 2 2 2 2 2 1
10 10 10 9 10 10 9 9 8 8 8 8 8 8 8 8 8 7 7 8 7 7 7 7 6 6 6 6 7 7 7 8 7 7 6 6 5 5 5 4 4 4 3 4 8 8 7 5 4 3 3 3 3 3 2 2 2 3 3 3 3 3 3 2 2 1 1 1 1
10 10 10 10 10 10 10 9 9 9 8 8 8 8 8 8 7 7 7 7 7 7 6 6 6 6 6 6 6 7 7 6 6 6 6 6 6 5 5 4 4 3 4 7 10 10 10 8 7 5 3 2 2 2 2 2 2 3 3 3 3 3 3 2 2 2 1 1 1
9 9 10 9 10 10 10 10 9 9 9 9 8 8 8 7 7 7 7 7 7 6 6 5 6 6 6 6 6 6 6 5 5 6 6 6 6 6 5 4 3 3 4 8 10 11 10 10 9 7 5 3 2 2 2 2 2 3 3 2 2 2 2 2 2 2 2 2 1
9 9 9 9 9 10 10 10 10 10 9 9 9 8 8 7 7 7 7 7 7 6 5 5 5 5 5 5 5 6 6 5 5 5 6 6 6 6 5 4 3 4 6 10 11 11 10 10 10 9 7 4 3 2 2 3 2 2 2 2 2 1 1 1 1 2 2 2 1
9 9 9 9 9 10 10 10 10 10 10 9 9 9 8 8 8 7 7 7 7 6 5 4 4 4 4 5 5 5 6 6 5 5 5 6 6 6 5 5 4 6 8 11 11 10 10 10 10 9 8 6 3 2 2 2 2 2 2 1 1 1 1 0 0 1 1 1 1
9 9 9 9 9 9 9 9 10 10 9 9 9 9 9 8 8 8 8 8 7 6 5 4 5 5 5 5 5 5 5 5 5 5 6 6 6 5 5 5 5 6 8 11 11 10 10 10 9 9 9 7 4 3 2 2 2 2 1 1 1 1 1 1 1 1 1 1 1
9 9 9 9 9 9 9 9 9 9 9 9 9 9 9 9 8 8 8 7 7 7 6 6 6 6 6 6 5 5 5 5 5 5 6 6 6 6 6 6 5 6 8 11 11 10 10 10 9 9 9 8 5 3 2 2 2 2 2 2 2 2 2 1 1 1 1 0 1
8 9 8 8 8 8 8 8 9 9 9 9 9 9 9 8 8 7 7 7 7 7 7 6 6 6 7 6 6 6 6 6 6 6 6 6 6 5 5 6 6 6 8 11 11 11 10 10 10 9 9 8 5 3 3 2 2 2 2 2 2 2 2 2 1 1 1 1 1
8 8 8 8 8 8 8 8 8 8 8 8 8 8 8 8 7 7 6 6 6 6 6 6 6 6 7 6 6 6 6 6 6 6 6 6 5 5 5 6 5 7 9 11 11 11 11 10 10 10 9 8 5 3 3 3 3 2 2 2 3 3 3 2 2 1 1 1 0
8 8 8 8 8 8 8 8 8 8 7 7 8 8 7 7 6 6 5 5 4 4 5 5 6 6 6 6 5 5 5 5 5 5 5 5 5 5 5 5 5 7 10 12 11 11 11 11 10 10 9 8 5 3 2 2 2 2 2 3 3 3 2 2 2 2 1 1 1
9 9 9 8 8 8 8 8 8 7 7 7 7 7 7 6 6 5 5 5 4 4 4 4 5 5 4 4 4 4 4 4 4 4 4 4 4 5 5 5 5 8 11 12 11 11 11 11 11 10 9 7 4 2 2 2 2 2 3 4 4 3 3 2 2 1 1 1 1
9 9 9 9 8 8 8 8 8 8 7 8 8 7 7 6 5 5 5 5 4 4 4 4 4 4 4 4 4 4 4 4 4 3 3 3 4 5 5 5 5 8 11 12 11 11 11 11 11 11 9 6 3 1 1 1 1 2 3 4 4 3 3 3 2 1 1 1 1
9 9 9 9 9 9 9 8 8 8 8 8 7 7 7 6 5 5 5 5 4 4 4 5 5 5 4 4 4 3 4 4 4 3 3 3 4 5 5 5 5 7 10 12 11 11 11 11 11 10 9 5 2 1 1 1 1 1 2 3 3 3 3 3 2 2 1 1 1
9 9 9 9 9 9 9 9 8 8 8 8 7 6 6 6 5 5 5 5 4 4 4 4 4 4 4 4 4 4 4 4 4 3 3 3 4 5 6 5 4 5 7 10 10 10 10 10 11 10 9 5 3 2 1 1 0 1 1 2 2 3 3 3 2 2 1 1 2
9 9 9 9 9 9 9 9 8 8 8 8 7 6 6 6 5 5 5 5 4 4 4 4 4 4 4 5 5 4 4 4 4 4 3 3 4 6 6 5 4 4 6 9 10 9 9 9 11 11 10 6 3 2 2 1 1 1 1 1 2 2 2 2 2 2 1 1 2
9 10 10 9 9 9 9 9 8 8 8 8 7 7 6 6 5 5 5 4 4 4 4 4 5 5 5 5 5 4 4 4 4 4 4 4 5 7 8 6 5 4 5 8 9 9 8 9 10 11 10 6 4 2 1 1 1 1 1 1 1 2 2 2 2 2 1 1 2
9 9 10 10 9 9 9 9 8 8 8 7 7 7 6 6 6 5 5 4 4 4 4 4 5 5 5 5 5 4 4 4 3 3 4 4 6 7 8 6 5 5 5 6 7 7 8 8 9 11 10 6 3 2 1 2 2 1 1 1 1 1 2 2 2 2 2 2 2
Wind_Direction
66 70 75 81 81 81 80 76 77 81 89 102 111 115 115 111 107 104 100 98 98 98 96 93 88 80 71 65 71 76 78 76 76 80 84 86 89 90 92 93 96 100 103 106 107 108 108 108 106 102 97 93 91 91 91 93 94 96 100 106 113 115 112 104 92 80 72 69 67
72 76 81 85 86 86 85 81 81 82 86 93 104 110 113 112 110 107 105 102 106 107 107 104 97 88 78 69 70 74 77 79 78 79 81 83 87 89 91 92 96 100 105 109 109 108 106 102 98 94 90 88 90 91 92 95 98 102 106 110 108 98 79 66 56 53 53 54 53
80 83 86 89 91 93 93 92 91 92 92 94 101 106 110 111 109 108 107 109 111 112 111 110 106 99 90 82 79 80 82 85 85 84 84 85 88 91 93 94 95 99 102 104 103 100 97 94 92 92 92 94 93 93 94 96 99 102 102 101 91 78 69 62 55 49 45 42 40
90 92 94 96 98 100 102 104 104 103 103 103 104 106 109 110 109 111 112 113 112 111 110 110 108 105 102 99 96 94 93 93 92 90 89 90 91 93 94 94 93 94 94 95 95 93 92 89 90 92 94 95 94 95 96 99 98 96 92 87 82 80 80 79 72 68 65 59 49
100 101 102 103 105 106 108 110 113 112 111 109 109 109 111 112 115 117 119 119 119 118 115 112 107 106 107 107 105 103 99 97 96 96 95 95 95 95 95 94 93 92 91 92 93 93 93 93 93 93 93 92 91 93 94 94 91 87 83 79 81 84 88 92 96 99 97 88 76
111 109 108 107 109 110 112 114 116 117 117 116 114 114 116 118 122 125 127 127 126 124 121 117 112 110 110 110 108 106 103 99 99 99 99 99 98 96 93 90 89 89 89 90 92 95 97 97 96 94 92 92 91 93 92 92 92 90 88 85 85 90 99 113 123 128 128 128 128
121 117 112 109 110 112 113 115 117 120 121 121 121 121 122 124 126 128 129 129 128 126 124 120 116 116 115 114 112 109 107 104 101 99 99 100 97 93 90 89 88 88 89 91 92 94 95 96 98 100 100 101 99 98 98 99 100 100 99 98 100 108 123 140 152 157 157 159 157
110 110 110 109 110 111 113 115 117 119 122 124 125 126 126 126 127 128 129 129 129 128 124 117 117 117 117 116 114 112 110 107 103 101 98 96 93 91 90 90 89 88 88 90 92 93 94 95 100 105 108 110 109 109 109 110 110 111 114 120 132 147 158 168 173 173 168 160 156
87 95 101 107 109 111 112 114 113 114 116 117 122 125 127 127 127 128 129 130 130 125 118 113 114 114 113 113 112 111 110 107 105 101 98 96 95 95 94 92 90 88 87 88 92 96 99 100 102 106 110 113 116 118 120 122 124 129 136 145 156 166 174 181 184 172 154 143 142
78 87 95 103 108 110 110 108 107 107 107 110 116 122 126 128 126 126 127 128 124 118 113 112 112 111 110 109 109 108 107 105 103 102 101 102 101 100 98 96 95 94 93 92 97 100 102 103 105 106 108 110 116 122 129 139 145 150 153 155 156 158 161 167 155 134 124 128 133
80 84 90 96 101 104 105 103 103 104 105 107 113 118 122 124 123 123 122 120 116 113 111 111 111 109 108 106 106 105 105 103 104 105 106 106 104 102 101 102 104 104 104 104 104 104 103 103 105 107 108 110 117 128 143 159 163 159 153 143 141 140 139 140 129 121 123 133 137
88 88 89 91 92 94 96 98 102 104 106 108 111 114 116 118 119 119 117 115 112 110 109 109 109 108 108 106 105 105 105 106 108 108 107 104 102 102 104 107 109 110 110 109 107 104 102 103 106 110 113 117 127 145 161 173 168 156 143 140 142 144 147 152 148 142 139 142 142
98 97 96 95 93 91 90 93 98 103 106 107 109 110 112 114 116 115 113 110 108 106 105 104 104 105 106 107 107 107 108 109 108 105 101 99 100 103 107 110 112 111 109 107 103 101 101 103 109 115 122 131 144 159 170 177 165 149 142 146 151 154 155 157 156 154 154 156 150
103 102 102 101 98 93 90 88 91 97 101 103 105 107 108 109 108 106 104 101 100 100 99 99 98 99 102 105 106 107 107 106 103 101 99 99 102 106 110 112 111 110 108 104 101 101 104 108 117 125 135 145 156 166 172 174 160 148 146 152 158 160 160 159 159 159 164 172 165
101 101 100 98 96 94 92 90 90 95 98 101 102 101 99 97 95 94 93 93 94 95 96 96 96 97 99 102 104 105 105 104 102 102 103 105 108 111 113 113 111 110 108 107 105 106 112 121 130 140 149 157 164 169 172 171 160 153 152 157 162 162 161 159 159 162 169 177 174
102 101 99 97 94 94 95 95 94 95 98 99 98 96 91 88 88 89 91 92 92 93 95 97 99 99 100 101 103 105 105 106 106 108 111 113 115 116 115 113 112 111 111 112 113 119 128 137 148 156 162 167 168 170 170 169 162 157 156 160 162 161 160 160 161 166 172 178 176
108 108 106 103 100 99 99 100 99 99 99 99 98 94 91 90 90 92 93 94 95 97 97 99 102 103 105 105 105 107 109 112 114 117 119 120 120 118 116 114 114 114 115 118 125 134 145 156 165 169 169 164 163 164 165 164 157 155 156 159 159 159 159 161 164 168 173 177 178
117 116 113 109 106 105 105 105 105 105 103 102 99 97 95 95 96 97 97 98 101 102 103 102 103 105 108 109 110 113 116 120 122 123 123 122 121 119 117 116 116 118 122 127 137 146 156 166 168 164 152 141 145 148 149 145 141 142 146 149 149 152 155 160 164 168 172 176 180
123 119 115 111 108 108 108 109 109 109 108 106 104 101 100 100 102 102 103 104 106 108 109 109 109 110 112 115 117 119 122 124 125 124 122 121 120 120 120 121 124 129 135 142 149 154 158 158 148 133 120 117 115 111 106 103 105 108 110 111 115 120 129 138 145 153 160 169 177
123 118 114 110 108 108 108 109 110 110 110 109 107 106 105 105 107 108 110 111 112 113 114 116 117 118 119 121 121 122 124 124 124 122 121 120 121 123 127 132 138 144 150 153 153 151 145 136 128 121 117 112 102 91 83 79 78 77 75 75 76 77 78 79 78 76 74 79 86
122 119 115 112 109 107 107 107 109 109 109 109 109 109 108 109 111 112 114 116 117 118 119 121 123 125 126 126 125 124 123 120 120 120 121 123 126 131 138 144 150 153 152 147 140 134 130 126 124 121 117 109 101 92 86 81 79 78 76 74 74 73 71 68 64 58 52 47 46
123 121 118 115 112 110 109 108 108 108 108 109 109 110 110 110 112 113 115 118 119 121 122 125 127 129 130 130 128 125 122 118 119 122 124 128 133 140 147 153 149 142 129 121 118 117 117 117 118 116 113 109 105 102 100 98 97 97 96 96 94 90 86 81 76 71 65 60 55
123 121 119 117 116 114 113 111 110 110 109 110 111 112 112 112 113 115 117 119 121 123 124 126 128 130 131 130 128 125 123 122 125 128 131 135 141 145 146 142 123 107 101 100 103 105 107 107 109 111 112 114 116 117 118 121 123 123 123 122 114 108 102 96 90 88 83 80 75
123 122 121 120 120 119 117 116 114 113 113 114 115 116 116 117 118 119 122 124 125 127 129 130 131 131 130 129 127 126 127 130 133 135 138 141 141 137 128 109 95 90 92 99 110 113 112 107 108 111 115 119 124 128 133 137 137 136 134 129 123 117 112 107 103 99 98 96 99
123 123 123 123 124 123 122 122 120 119 119 119 120 121 121 123 125 126 128 128 129 130 132 131 131 130 129 127 127 129 133 136 138 139 139 137 130 120 109 99 96 98 108 119 124 125 124 122 120 115 113 115 119 123 128 129 129 127 125 124 123 123 123 121 118 117 119 121 136
123 124 125 126 126 126 126 126 125 125 125 125 126 125 126 128 129 130 131 130 130 131 131 130 129 129 128 126 129 133 136 139 139 138 134 129 120 113 106 105 109 115 126 131 131 130 130 130 126 120 109 102 105 104 100 96 97 100 104 110 118 124 130 136 145 150 153 156 177
124 125 126 127 128 128 128 129 129 130 130 130 130 130 129 130 131 131 131 129 129 128 128 127 127 127 127 126 133 137 140 141 139 135 131 125 121 117 115 116 123 131 137 138 135 134 134 133 130 125 116 101 100 99 95 88 84 85 87 93 100 113 127 146 160 165 168 175 185
126 126 127 128 129 129 130 131 132 133 134 134 134 133 133 134 133 133 131 129 129 129 128 128 128 128 129 134 142 145 146 144 140 135 131 128 126 126 126 128 135 143 145 143 140 139 138 136 134 131 126 114 104 100 101 98 92 87 85 87 91 99 115 151 163 164 161 165 167
129 129 129 130 130 131 131 132 134 135 136 136 136 137 138 139 138 135 133 132 133 133 134 135 135 136 140 148 153 152 149 144 141 136 133 132 132 133 134 136 141 147 149 147 146 145 143 141 138 136 132 125 111 99 99 101 100 98 100 107 113 120 120 109 73 87 113 139 144
133 133 133 133 133 133 133 133 134 135 136 136 138 140 141 142 140 139 138 139 141 143 146 147 148 150 154 157 155 152 147 144 140 138 137 139 140 141 140 139 144 150 152 152 151 151 149 147 143 139 135 130 118 105 101 105 112 120 133 145 142 136 124 99 71 58 50 71 110
137 137 136 136 136 135 134 134 135 136 136 137 140 142 143 143 142 142 144 147 150 153 156 157 158 157 157 155 151 148 145 144 143 142 143 145 146 144 140 139 144 152 156 156 155 155 154 151 147 144 141 138 131 125 122 128 141 153 161 161 145 131 116 100 91 84 80 71 98
139 139 139 139 138 137 135 134 134 135 137 138 140 141 141 141 143 146 150 154 156 158 160 161 159 155 151 148 145 144 145 145 147 149 150 151 149 146 141 140 145 155 160 161 160 159 158 155 152 151 149 149 146 145 148 156 168 173 169 156 141 129 121 115 116 120 125 129 143
142 142 142 141 139 137 134 133 134 135 137 138 139 140 139 140 144 148 152 154 156 157 158 158 153 148 145 144 142 143 145 148 151 152 154 154 150 143 138 138 146 159 166 166 165 164 162 160 158 157 156 157 157 160 166 172 179 175 163 145 133 126 122 117 111 102 91 80 116
146 146 145 143 140 137 135 133 134 135 137 139 139 140 140 141 145 149 151 153 154 153 152 148 144 141 140 141 140 142 145 147 149 151 153 152 143 136 133 138 150 166 171 170 170 169 167 165 164 163 163 163 164 170 183 184 181 167 146 133 126 120 113 105 98 89 75 53 39
149 148 146 143 141 138 136 135 136 138 140 141 141 141 142 144 146 149 151 152 149 144 137 134 133 132 132 133 135 137 140 141 143 146 148 145 131 126 127 137 153 169 173 174 175 174 174 172 172 171 169 166 167 179 198 193 180 158 141 130 126 120 115 107 103 99 91 70 43
152 150 147 144 142 140 138 139 140 142 144 144 142 142 143 145 147 149 151 151 143 134 128 127 127 127 129 130 131 134 137 138 142 145 145 138 125 123 128 138 155 170 175 176 179 181 182 181 180 178 174 165 165 186 216 209 173 149 137 131 131 131 129 123 122 119 104 85 59
153 151 148 145 143 142 142 143 145 146 147 145 144 144 144 145 147 150 151 149 138 132 131 130 131 133 136 137 137 138 139 139 140 145 146 142 129 127 130 139 156 171 177 179 184 188 191 191 189 183 175 158 161 191 228 230 164 132 130 132 136 138 137 135 134 128 119 104 91
154 151 149 146 146 145 146 147 149 149 148 145 144 144 145 145 147 151 152 149 139 135 135 134 137 140 141 140 138 136 137 139 143 148 151 148 136 133 134 141 158 173 180 182 188 193 199 200 198 188 174 149 161 188 214 221 152 122 125 133 137 138 139 138 136 133 130 133 134
154 152 150 148 148 148 149 151 152 150 147 144 145 146 146 146 149 152 153 148 140 138 138 138 140 141 140 137 134 134 138 144 149 153 156 154 145 141 140 144 158 172 183 188 193 199 204 207 202 189 173 152 164 183 195 177 139 120 119 124 129 132 135 137 135 134 142 164 172
154 153 151 150 150 151 152 154 153 149 146 145 147 148 148 149 150 151 150 144 140 139 139 138 138 137 135 134 133 135 141 149 156 159 161 160 154 150 148 146 158 170 183 192 198 204 209 210 200 185 171 155 166 176 172 139 116 104 104 118 125 130 137 144 143 145 154 176 185
155 153 152 151 152 153 154 154 151 147 145 146 149 150 150 149 149 148 148 145 143 142 140 138 136 136 135 136 135 137 143 153 163 167 165 162 160 157 154 149 159 169 183 195 203 208 211 208 193 177 166 158 165 164 143 116 107 112 133 176 149 143 143 150 155 160 166 175 178